Starlink 31029

operational
NORAD ID: 58712 Int'l Des: 2024-002 Owner: SPXS Country: US Constellation: starlink
LEOCIRCULAR

Starlink 31029について

説明を読み込み中...

リアルタイム位置

3D地球を読み込み中...

次回通過

高度履歴

Altitude vs Time

uPlot chart will show altitude changes over time

軌道要素

1 58712U 24002H 25257.90064346 .00000588 00000-0 31969-4 0 9997
2 58712 53.1611 326.2891 0001117 93.0657 267.0472 15.30190271 95105
Epoch: Sep 14, 2025 • Age: 24 hours

現在のステータス

高度 480.7 km
速度 7.63 km/s
衛星直下点 51.64°N, 74.85°E
打ち上げ日 Jan 3, 2024
運用期間 1.7 years
タイプ internet

技術仕様

分類 Payload
質量 730.00 kg
乾燥質量 700.00 kg
総質量 730.00 kg
長さ 0.30 m
直径 4.10 m
スパン 29.00 m
形状 Box + pan
製造者 SPXS
バスタイプ Starlink V2M
フェーズステータス In Orbit
所有者/国 SPXS/US

大規模コンステレーション

Loading constellations...